Погода в Балтиморе

США     39°17′24″N   76°36′45″W
В апреле 2022 года жителям России запретили посещать сайт meteo.paraplan.net по решению Генеральной прокуратуры. Аудитория сайта уменьшилась в 10 раз. Владельцы сайта не видят смысла в поддержке погодного сервера в таких условиях. Сайт будет закрыт в октябре.
темп.,
°C
ветер,
м/с
пор.,
м/с
влажн.,
%
обл.,
%
осадки,
мм/ч
давл.,
гПа
погр.,
м
4 октября, вт
вт423:00+9ссв71481100 1.5 1022753
02:00+9с81483100 3.8 1020804
05:00+9с81482100 0.8 1018743
08:00+9с71387100 2.4 1017711
11:00+9с81391100 4.9 1017668
14:00+10с71292100 8.1 1015594
17:00+11с71393100 3.6 1014585
20:00+11с71392100 7.9 1015615
5 октября, ср
ср523:00+11ссз71390100 1.4 1014663
02:00+11ссз71391100 2.3 1013611
05:00+12ссз61291100 0.9 1013564
08:00+12ссз61191100 1.8 1013546
11:00+13ссз61189100 0.8 1015570
14:00+15с61083100 1.1 1015688
17:00+16ссз597597 0.0 1015692
20:00+15ссз387224 0.0 1016279
6 октября, чт
чт623:00+14ссз227018 0.0 101667
02:00+13сз22705 0.0 101667
05:00+13сз23698 0.0 101678
08:00+13сз236642 0.0 1017101
11:00+18зсз1248100 0.0 1017381
14:00+21ююз1241100 0.0 1016791
17:00+21ю1352100 0.0 1015673
20:00+19з12625 0.0 101622
7 октября, пт
пт723:00+17зюз246319 0.0 101685
02:00+16з23660 0.0 101583
05:00+15з23645 0.0 101577
08:00+15зюз25605 0.0 1015137
11:00+21юз35465 0.0 1015427
14:00+23зсз57435 0.0 10141093
17:00+19ссз8106289 0.0 1016901
20:00+13сз6126258 0.0 1019811
8 октября, сб
сб823:00+11ссз610600 0.0 1021888
02:00+10сз59585 0.0 1023885
05:00+9сз59563 0.0 1023792
08:00+9сз48550 0.0 1025654
11:00+12сз57415 0.0 10251549
14:00+15сз57351 0.0 10231738
17:00+16зсз47360 0.0 10221836
20:00+13зсз24450 0.0 1022281